WX8ASH-13 Weather Reports


time (UTC)temp
C
wind
direction
speed
KPH
gust
KPH
rain 1hr
cm
rain 24hr
cm
rain mn
cm
humidity
%
barometer
mb
20260510180022 15 305 0.0 8.0 0.00 0.20 0.00 53 1024.6
20260510175517 15 15 0.0 6.4 0.00 0.20 0.00 53 1024.7
20260510175021 15 30 0.0 8.0 0.00 0.20 0.00 56 1024.7
20260510174516 14 305 4.8 8.0 0.00 0.20 0.00 56 1024.8
20260510174046 14 35 3.2 12.9 0.00 0.20 0.00 55 1024.8
20260510173516 14 4 0.0 12.9 0.00 0.20 0.00 52 1024.9
20260510173018 14 332 4.8 12.9 0.00 0.20 0.00 56 1024.9
20260510172516 14 18 3.2 11.3 0.00 0.20 0.00 52 1025.0
20260510172017 14 298 4.8 11.3 0.00 0.20 0.00 57 1025.0
20260510171516 14 359 6.4 11.3 0.00 0.20 0.00 54 1025.1
20260510171017 13 91 6.4 11.3 0.00 0.20 0.00 58 1025.1
20260510170516 13 3 0.0 11.3 0.00 0.20 0.00 58 1025.1
20260510170015 13 357 1.6 11.3 0.00 0.20 0.00 57 1025.1
20260510165518 13 357 4.8 9.7 0.00 0.20 0.00 54 1025.2
20260510165016 13 60 4.8 11.3 0.00 0.20 0.00 57 1025.2
20260510164516 13 23 0.0 12.9 0.00 0.20 0.00 56 1025.1
20260510164016 13 1 0.0 12.9 0.00 0.20 0.00 57 1025.1
20260510163515 13 7 8.0 12.9 0.00 0.20 0.00 55 1025.1
20260510163015 13 329 8.0 11.3 0.00 0.20 0.00 58 1025.0
20260510162515 13 6 3.2 16.1 0.00 0.20 0.00 61 1025.0
20260510162015 13 4 0.0 16.1 0.00 0.20 0.00 59 1025.0
20260510161514 12 56 0.0 16.1 0.00 0.20 0.00 61 1025.0
20260510161044 12 0 3.2 14.5 0.00 0.20 0.00 55 1025.0
20260510160514 12 25 6.4 14.5 0.00 0.20 0.00 59 1025.0
20260510160043 12 20 0.0 14.5 0.00 0.20 0.00 56 1025.0
20260510155554 12 7 1.6 14.5 0.00 0.20 0.00 62 1024.9
20260510155043 12 49 1.6 14.5 0.00 0.20 0.00 63 1024.8
20260510154551 12 14 1.6 14.5 0.00 0.20 0.00 64 1024.8
20260510154043 12 21 3.2 14.5 0.00 0.20 0.00 65 1024.7
20260510153520 12 359 0.0 14.5 0.00 0.20 0.00 64 1024.7
20260510153042 12 356 1.6 14.5 0.00 0.20 0.00 63 1024.6
20260510152544 12 316 3.2 11.3 0.00 0.20 0.00 63 1024.5
20260510152017 12 45 0.0 12.9 0.00 0.20 0.00 67 1024.6
20260510151544 12 0 0.0 12.9 0.00 0.20 0.00 67 1024.5
20260510151044 11 322 9.7 12.9 0.00 0.20 0.00 66 1024.2
20260510150542 11 39 4.8 12.9 0.00 0.20 0.00 67 1024.2
20260510150043 11 82 3.2 12.9 0.00 0.20 0.00 68 1024.2
20260510145542 11 48 4.8 12.9 0.00 0.20 0.00 68 1024.0
20260510145011 11 11 0.0 12.9 0.00 0.20 0.00 67 1023.9
20260510144541 11 1 4.8 12.9 0.00 0.20 0.00 66 1023.8
20260510144050 11 24 1.6 12.9 0.00 0.20 0.00 70 1023.8
20260510143541 11 24 3.2 11.3 0.00 0.20 0.00 71 1023.8
20260510143049 11 11 1.6 12.9 0.00 0.20 0.00 70 1023.7
20260510142540 11 359 1.6 12.9 0.00 0.20 0.00 71 1023.7
20260510142045 11 1 4.8 12.9 0.00 0.20 0.00 69 1023.6
20260510141542 11 32 0.0 9.7 0.00 0.20 0.00 73 1023.6
20260510141046 10 48 0.0 9.7 0.00 0.20 0.00 74 1023.6
20260510140540 10 28 9.7 11.3 0.00 0.20 0.00 74 1023.6
20260510140044 10 336 3.2 11.3 0.00 0.20 0.00 74 1023.5
20260510135540 10 359 8.0 11.3 0.00 0.20 0.00 75 1023.6
20260510135048 10 37 1.6 12.9 0.00 0.20 0.00 74 1023.5
20260510134539 10 20 4.8 12.9 0.00 0.20 0.00 74 1023.6
20260510134042 10 11 0.0 12.9 0.00 0.20 0.00 76 1023.5
20260510133539 9 59 0.0 11.3 0.00 0.20 0.00 81 1023.4
20260510133040 9 56 0.0 11.3 0.00 0.20 0.00 81 1023.6
20260510132542 9 27 0.0 9.7 0.00 0.20 0.00 82 1023.5
20260510132039 9 65 0.0 6.4 0.00 0.20 0.00 85 1023.4
20260510131542 9 352 0.0 0.0 0.00 0.20 0.00 86 1023.3
20260510131040 9 352 0.0 0.0 0.00 0.20 0.00 87 1023.1
20260510130541 9 352 0.0 0.0 0.00 0.20 0.00 87 1023.1
20260510130038 9 352 0.0 1.6 0.00 0.20 0.00 87 1023.2
20260510125546 8 352 0.0 1.6 0.00 0.20 0.00 88 1023.1
20260510125038 8 18 0.0 3.2 0.00 0.20 0.00 88 1023.0
20260510124541 8 18 0.0 3.2 0.00 0.20 0.00 88 1022.9
20260510124037 8 18 0.0 4.8 0.00 0.20 0.00 89 1022.7
20260510123540 8 10 0.0 4.8 0.00 0.20 0.00 89 1022.4
20260510123038 8 41 0.0 4.8 0.00 0.20 0.00 89 1022.4
20260510122540 8 11 1.6 3.2 0.00 0.20 0.00 89 1022.1
20260510122052 8 23 0.0 3.2 0.00 0.20 0.00 88 1022.1
20260510121545 8 8 0.0 8.0 0.00 0.20 0.00 88 1022.0
20260510121036 8 23 0.0 8.0 0.00 0.20 0.00 89 1021.9
20260510120540 8 23 0.0 8.0 0.00 0.20 0.00 88 1021.8
20260510120036 8 6 0.0 6.4 0.00 0.20 0.00 88 1021.7
20260510115541 8 3 0.0 6.4 0.00 0.20 0.00 87 1021.5
20260510115036 8 4 0.0 6.4 0.00 0.20 0.00 87 1021.5
20260510114538 8 0 0.0 0.0 0.00 0.20 0.00 87 1021.4
20260510114036 8 0 0.0 0.0 0.00 0.20 0.00 87 1021.3
20260510113538 8 0 0.0 0.0 0.00 0.20 0.00 87 1021.4
20260510113036 8 0 0.0 0.0 0.00 0.20 0.00 87 1021.3
20260510112539 8 0 0.0 0.0 0.00 0.20 0.00 87 1021.2
20260510112035 8 0 0.0 0.0 0.00 0.20 0.00 88 1021.1
20260510111535 8 0 0.0 0.0 0.00 0.20 0.00 89 1020.9
20260510111042 8 0 0.0 0.0 0.00 0.20 0.00 90 1020.5
20260510110535 8 0 0.0 0.0 0.00 0.20 0.00 91 1020.6
20260510110059 8 0 0.0 0.0 0.00 0.20 0.00 92 1020.5
20260510105550 8 0 0.0 0.0 0.00 0.20 0.00 93 1020.4
20260510105035 8 0 0.0 0.0 0.00 0.20 0.00 94 1020.5
20260510104537 8 0 0.0 0.0 0.00 0.20 0.00 94 1020.5
20260510104033 8 0 0.0 0.0 0.00 0.20 0.00 94 1020.0
20260510103538 8 0 0.0 0.0 0.00 0.20 0.00 94 1020.0
20260510103034 8 0 0.0 0.0 0.00 0.20 0.00 94 1019.8
20260510102534 8 0 0.0 0.0 0.00 0.20 0.00 94 1019.7
20260510102058 8 0 0.0 0.0 0.00 0.20 0.00 93 1019.6
20260510101533 7 0 0.0 0.0 0.00 0.20 0.00 93 1019.6
20260510101046 7 0 0.0 0.0 0.00 0.20 0.00 92 1019.5
20260510100533 7 0 0.0 0.0 0.00 0.20 0.00 92 1019.5
20260510100036 7 0 0.0 0.0 0.00 0.20 0.00 91 1019.3
20260510095533 7 0 0.0 0.0 0.00 0.20 0.00 90 1019.4
20260510095033 7 0 0.0 0.0 0.00 0.20 0.00 90 1019.2
20260510094533 7 0 0.0 0.0 0.00 0.20 0.00 90 1019.5
20260510094032 8 0 0.0 0.0 0.00 0.20 0.00 89 1019.3
20260510093541 8 0 0.0 0.0 0.00 0.20 0.00 89 1019.2
20260510093032 8 0 0.0 0.0 0.00 0.20 0.00 88 1019.3
20260510092532 8 0 0.0 0.0 0.00 0.20 0.00 87 1019.1
20260510092053 8 0 0.0 0.0 0.00 0.20 0.00 86 1019.0
20260510091531 8 0 0.0 0.0 0.00 0.20 0.00 86 1019.1
20260510091048 8 0 0.0 0.0 0.00 0.20 0.00 85 1019.0
20260510090532 8 0 0.0 0.0 0.00 0.20 0.00 84 1018.9
20260510090031 8 0 0.0 0.0 0.00 0.20 0.00 84 1019.0
20260510085540 9 0 0.0 0.0 0.00 0.20 0.00 83 1018.8
20260510085031 9 0 0.0 0.0 0.00 0.20 0.00 84 1018.6
20260510084531 9 0 0.0 0.0 0.00 0.20 0.00 82 1018.6
20260510084038 9 0 0.0 0.0 0.00 0.20 0.00 81 1018.6
20260510083530 9 0 0.0 0.0 0.00 0.20 0.00 80 1018.5
20260510083030 9 0 0.0 0.0 0.00 0.20 0.00 78 1018.3
20260510082536 10 0 0.0 0.0 0.00 0.20 0.00 79 1017.9
20260510082031 10 0 0.0 0.0 0.00 0.20 0.00 79 1018.1
20260510081529 10 0 0.0 0.0 0.00 0.20 0.00 79 1017.8
20260510081039 10 0 0.0 0.0 0.00 0.20 0.00 79 1017.7
20260510080530 10 0 0.0 0.0 0.00 0.20 0.00 80 1017.7
20260510080044 10 0 0.0 0.0 0.00 0.23 0.00 79 1017.7
20260510075531 10 0 0.0 1.6 0.00 0.23 0.00 79 1017.8
20260510075037 10 0 0.0 12.9 0.00 0.23 0.00 80 1017.7
20260510074529 10 0 0.0 12.9 0.00 0.23 0.00 79 1017.7
20260510074028 10 7 0.0 12.9 0.00 0.23 0.00 82 1017.6
20260510073537 10 359 0.0 3.2 0.00 0.23 0.00 82 1017.5
20260510073030 10 11 0.0 16.1 0.00 0.23 0.00 83 1017.4
20260510072528 11 11 1.6 16.1 0.00 0.23 0.00 84 1017.5
20260510072030 11 42 0.0 16.1 0.00 0.23 0.00 85 1017.4
20260510071544 11 35 6.4 9.7 0.00 0.25 0.00 86 1017.4
20260510071027 11 0 0.0 8.0 0.00 0.25 0.00 89 1017.4
20260510070529 12 11 0.0 8.0 0.00 0.25 0.00 92 1017.4
20260510070032 12 0 0.0 6.4 0.00 0.25 0.00 93 1017.3
20260510065527 12 0 0.0 6.4 0.00 0.25 0.00 93 1017.2
20260510065027 12 0 0.0 6.4 0.00 0.25 0.00 92 1017.0
20260510064536 12 290 0.0 0.0 0.00 0.25 0.00 93 1016.9
20260510064029 12 290 0.0 0.0 0.00 0.25 0.00 93 1016.9
20260510063527 12 290 0.0 0.0 0.00 0.28 0.00 93 1016.9
20260510063035 12 290 0.0 0.0 0.00 0.30 0.00 93 1016.9
20260510062527 13 290 0.0 0.0 0.00 0.36 0.00 94 1016.8
20260510062026 13 290 0.0 8.0 0.00 0.41 0.00 94 1016.7
20260510061534 13 290 0.0 11.3 0.00 0.43 0.00 94 1016.6
20260510061041 13 290 0.0 11.3 0.00 0.46 0.00 95 1016.6
20260510060525 12 287 0.0 11.3 0.00 0.48 0.00 95 1016.5
20260510060027 12 293 3.2 11.3 0.00 0.56 0.00 95 1016.6
20260510055545 12 281 0.0 11.3 0.00 0.56 0.00 96 1016.4
20260510055025 12 281 0.0 11.3 0.00 0.56 0.00 96 1016.3
20260510054526 12 322 3.2 6.4 0.00 0.56 0.00 96 1016.3
20260510054032 12 267 1.6 6.4 0.00 0.56 0.00 96 1016.2
20260510053525 12 229 0.0 0.0 0.00 0.56 0.00 96 1016.0
20260510053025 12 229 0.0 0.0 0.00 0.56 0.00 96 1015.8
20260510052534 12 229 0.0 0.0 0.00 0.58 0.00 96 1015.8
20260510052024 12 229 0.0 0.0 0.00 0.61 0.00 96 1015.8
20260510051526 12 229 0.0 0.0 0.00 0.64 0.00 96 1015.7
20260510051028 12 229 0.0 0.0 0.00 0.69 0.00 96 1015.7
20260510050524 12 229 0.0 11.3 0.00 0.74 0.00 96 1015.6
20260510050039 12 229 0.0 11.3 0.00 0.76 0.00 96 1015.6
20260510045525 12 229 0.0 14.5 0.00 0.79 0.00 97 1015.6
20260510045031 12 250 0.0 14.5 0.00 0.81 0.00 97 1015.6
20260510044531 12 205 0.0 14.5 0.00 0.81 0.00 97 1015.6
20260510044023 12 271 0.0 14.5 0.00 0.81 0.00 97 1015.6
20260510043523 12 242 0.0 14.5 0.00 0.81 0.00 97 1015.5
20260510043038 12 274 0.0 11.3 0.00 0.81 0.00 97 1015.6
20260510042544 12 266 6.4 11.3 0.00 0.81 0.00 97 1015.6
20260510042030 12 253 4.8 11.3 0.00 0.81 0.00 97 1015.6
20260510041526 12 259 0.0 11.3 0.00 0.84 0.00 97 1015.4
20260510041038 12 197 0.0 11.3 0.00 0.91 0.00 97 1015.3
20260510040522 12 242 0.0 8.0 0.00 0.94 0.00 97 1015.2
20260510040108 12 253 0.0 4.8 0.00 0.94 0.00 97 1015.3
20260510035538 12 203 0.0 1.6 0.00 0.94 0.94 97 1015.2
20260510035021 12 203 0.0 1.6 0.00 0.94 0.94 97 1015.2
20260510034527 12 191 0.0 4.8 0.00 0.97 0.94 97 1015.2
20260510034021 12 191 0.0 4.8 0.00 0.97 0.94 97 1015.2
20260510033536 12 179 1.6 4.8 0.00 0.97 0.94 97 1015.2
20260510033028 12 208 0.0 3.2 0.00 0.97 0.94 97 1015.3
20260510032538 12 208 0.0 3.2 0.00 1.02 0.94 97 1015.2
20260510032020 12 181 0.0 4.8 0.00 1.02 0.94 97 1015.3
20260510031528 12 141 0.0 4.8 0.00 1.02 0.94 97 1015.2
20260510031020 12 141 0.0 4.8 0.00 1.02 0.94 97 1015.2
20260510030535 12 214 0.0 0.0 0.00 1.04 0.94 97 1015.3
20260510030050 12 214 0.0 0.0 0.00 1.04 0.94 97 1015.3
20260510025521 12 214 0.0 0.0 0.03 1.04 0.94 97 1015.3
20260510025020 12 214 0.0 0.0 0.03 1.04 0.94 97 1015.3
20260510024550 12 214 0.0 0.0 0.05 1.07 0.94 97 1015.4
20260510024020 13 214 0.0 0.0 0.05 1.07 0.94 97 1015.5
20260510023520 13 214 0.0 0.0 0.05 1.07 0.94 97 1015.3
20260510023028 13 214 0.0 0.0 0.05 1.07 0.94 97 1015.2
20260510022519 13 214 0.0 0.0 0.05 1.07 0.94 97 1015.1
20260510022020 13 214 0.0 1.6 0.05 1.07 0.94 97 1015.2
20260510021523 12 214 0.0 3.2 0.05 1.07 0.94 97 1015.3
20260510021018 12 214 0.0 3.2 0.05 1.07 0.94 97 1015.0
20260510020549 12 200 0.0 3.2 0.05 1.07 0.94 96 1015.0
20260510020022 12 260 0.0 3.2 0.05 1.07 0.94 96 1015.3
20260510015518 12 166 0.0 0.0 0.03 1.04 0.91 96 1014.8
20260510015048 13 166 0.0 0.0 0.03 1.04 0.91 96 1014.8
20260510014519 12 166 0.0 0.0 0.00 1.04 0.89 96 1014.7
20260510014018 12 166 0.0 0.0 0.00 1.04 0.89 96 1014.5
20260510013518 12 166 0.0 1.6 0.00 1.04 0.89 96 1014.5
20260510013027 12 166 0.0 4.8 0.00 1.04 0.89 96 1014.5
20260510012517 12 166 0.0 4.8 0.00 1.04 0.89 96 1014.5
20260510012018 13 181 1.6 4.8 0.00 1.04 0.89 96 1014.3
20260510011548 13 259 0.0 4.8 0.00 1.04 0.89 96 1014.2
20260510011017 13 259 0.0 4.8 0.00 1.04 0.89 96 1014.2
20260510010517 13 259 0.0 4.8 0.03 1.04 0.89 96 1014.2
20260510010047 13 298 0.0 0.0 0.05 1.04 0.89 96 1014.0
20260510005533 13 298 0.0 0.0 0.05 1.27 0.89 96 1013.9
20260510005016 13 298 0.0 0.0 0.05 1.27 0.89 96 1013.9
20260510004517 13 298 0.0 0.0 0.05 1.27 0.89 96 1013.9
20260510004018 13 298 0.0 0.0 0.08 1.27 0.89 96 1013.7
20260510003516 13 298 0.0 0.0 0.15 1.27 0.89 96 1013.9
20260510003017 13 298 0.0 4.8 0.15 1.27 0.89 96 1013.9
20260510002518 13 298 0.0 9.7 0.15 1.27 0.89 96 1013.9
20260510002015 13 298 0.0 16.1 0.15 1.27 0.89 96 1013.9
20260510001516 13 287 0.0 16.1 0.15 1.27 0.89 96 1013.6
20260510001022 13 314 9.7 16.1 0.15 1.27 0.89 96 1014.4
20260510000515 13 280 3.2 14.5 0.13 1.24 0.86 96 1014.7
20260510000046 13 311 6.4 19.3 0.10 1.22 0.84 95 1014.2
20260509235603 13 304 12.9 19.3 0.10 1.22 0.84 95 1014.0
20260509235014 13 314 9.7 19.3 0.10 1.24 0.84 95 1014.0
20260509234544 13 330 4.8 22.5 0.10 1.24 0.84 93 1014.0
20260509234015 15 354 4.8 38.6 0.08 1.22 0.81 92 1013.9
20260509233514 16 302 11.3 38.6 0.00 1.14 0.74 86 1013.7
20260509232515 20 304 12.9 35.4 0.00 1.17 0.74 65 1013.3
20260509232014 20 315 8.0 17.7 0.00 1.17 0.74 60 1012.4
20260509231543 19 300 0.0 12.9 0.00 1.17 0.74 61 1012.3
20260509231052 19 229 1.6 12.9 0.00 1.42 0.74 62 1012.3
20260509230513 19 291 3.2 19.3 0.00 1.42 0.74 62 1012.3
20260509230043 20 271 0.0 19.3 0.00 1.68 0.74 63 1011.9
20260509225547 20 297 3.2 19.3 0.00 1.68 0.74 60 1011.9
20260509225046 20 315 4.8 19.3 0.00 1.68 0.74 59 1012.1
20260509224542 20 229 4.8 16.1 0.00 1.68 0.74 59 1012.1
20260509224045 20 236 6.4 20.9 0.00 1.93 0.74 59 1012.1
20260509223550 20 308 3.2 20.9 0.00 1.93 0.74 58 1012.1
20260509223042 20 305 4.8 24.1 0.00 1.93 0.74 57 1011.9
20260509222542 20 283 3.2 24.1 0.00 1.93 0.74 56 1011.9
20260509222049 21 255 3.2 24.1 0.00 1.93 0.74 55 1011.9
20260509221543 21 271 11.3 24.1 0.00 1.93 0.74 56 1011.9
20260509221041 20 263 3.2 22.5 0.00 1.93 0.74 56 1011.9
20260509220544 20 236 3.2 22.5 0.00 1.93 0.74 57 1011.9
20260509220044 21 260 3.2 22.5 0.00 1.93 0.74 55 1012.1
20260509215541 21 281 8.0 20.9 0.00 1.93 0.74 55 1011.9
20260509215045 21 232 4.8 29.0 0.00 1.93 0.74 54 1011.9
20260509214542 21 242 1.6 29.0 0.00 1.93 0.74 57 1011.9
20260509214040 21 284 1.6 25.7 0.00 1.93 0.74 56 1011.9
20260509213542 21 233 3.2 25.7 0.00 1.93 0.74 56 1011.8
20260509213044 21 250 12.9 20.9 0.00 1.93 0.74 57 1011.9
20260509212555 21 219 8.0 30.6 0.00 1.93 0.74 57 1011.8
20260509212041 21 304 11.3 30.6 0.00 1.93 0.74 55 1011.8
20260509211544 20 229 8.0 30.6 0.00 1.93 0.74 56 1011.9
20260509211039 20 290 9.7 25.7 0.00 1.93 0.74 57 1012.1
20260509210540 20 276 1.6 27.4 0.00 1.93 0.74 56 1012.1
20260509210047 21 298 3.2 27.4 0.00 1.93 0.74 55 1012.2
20260509205539 20 212 6.4 27.4 0.00 1.93 0.74 57 1012.2
20260509205039 21 255 12.9 25.7 0.00 1.93 0.74 56 1012.3
20260509204545 21 293 1.6 25.7 0.00 1.93 0.74 57 1012.5
20260509204040 21 269 6.4 24.1 0.00 1.93 0.74 57 1012.5
20260509203539 21 259 1.6 22.5 0.00 1.93 0.74 59 1012.6
20260509203055 21 221 14.5 22.5 0.00 1.93 0.74 57 1012.7
20260509202538 20 226 1.6 24.1 0.00 1.93 0.74 59 1012.7
20260509202039 20 284 0.0 24.1 0.00 1.93 0.74 59 1012.7
20260509201547 20 284 1.6 24.1 0.00 1.93 0.74 59 1012.8
20260509201038 20 210 0.0 20.9 0.00 1.93 0.74 58 1012.9
20260509200539 20 294 8.0 17.7 0.00 1.93 0.74 59 1012.9
20260509200051 20 284 4.8 24.1 0.00 1.93 0.74 59 1013.0
20260509195537 20 284 1.6 24.1 0.00 1.93 0.74 61 1013.1
20260509195039 20 285 9.7 24.1 0.00 1.93 0.74 60 1013.2
20260509194602 20 274 6.4 22.5 0.00 1.93 0.74 61 1013.2
20260509194037 20 221 3.2 22.5 0.00 1.93 0.74 61 1013.2
20260509193556 20 219 3.2 22.5 0.00 1.93 0.74 63 1013.2
20260509193038 20 239 14.5 22.5 0.00 1.93 0.74 61 1013.3
20260509192536 20 276 1.6 24.1 0.00 1.93 0.74 60 1013.3
20260509192040 20 278 6.4 24.1 0.00 1.93 0.74 63 1013.3
20260509191542 20 264 3.2 24.1 0.00 1.93 0.74 64 1013.2
20260509191036 20 260 0.0 24.1 0.00 1.93 0.74 64 1013.2
20260509190542 20 278 9.7 24.1 0.00 1.93 0.74 65 1013.3
20260509190036 20 259 8.0 24.1 0.00 2.18 0.74 62 1013.4
20260509185536 20 190 6.4 20.9 0.00 2.18 0.74 63 1013.5
20260509185046 19 252 0.0 20.9 0.00 2.18 0.74 66 1013.5
20260509184535 19 260 8.0 20.9 0.00 2.18 0.74 69 1013.6
20260509184036 18 248 9.7 17.7 0.00 2.18 0.74 66 1013.6
20260509183544 19 252 0.0 20.9 0.00 2.18 0.74 65 1013.7
20260509183035 19 264 1.6 20.9 0.00 2.18 0.74 66 1013.7
20260509182535 19 270 0.0 20.9 0.00 2.18 0.74 66 1013.7
20260509182043 19 287 4.8 12.9 0.00 2.18 0.74 66 1013.6
20260509181534 18 243 3.2 20.9 0.00 2.18 0.74 67 1013.5
20260509181035 18 307 0.0 22.5 0.00 2.18 0.74 68 1013.7
20260509180541 18 262 3.2 22.5 0.00 2.18 0.74 67 1013.7